Wind_Speed
38 37 37 37 38 40 42 43 44 45 46 46 47 47 47 46 45 43 41 39 35 33 32 32 32 31 30 30 31 33 33 32 30 25 20 17 15 13 10 6 6 7 9 13 16 20 23 21 21 23 22 21 19 16 16 14 11 10 7 6 5 6 7 7 13 17 16 16 16 15 14 13 14 20 25 26 23 19 17 18 22 24 24 24 23 21 22 24
39 39 39 39 40 40 42 43 44 45 46 46 47 47 47 47 46 45 43 41 38 35 33 32 32 31 30 30 30 33 33 31 30 24 18 15 13 12 9 7 6 8 10 13 16 19 21 19 19 19 18 16 14 15 16 13 8 6 5 5 2 2 6 7 12 16 17 18 15 14 15 15 15 20 25 24 22 21 17 15 20 23 24 24 25 22 20 22
40 40 40 40 40 41 42 43 44 45 46 46 47 47 47 47 46 46 45 43 41 37 34 32 31 30 29 29 30 32 33 32 30 23 17 14 12 10 8 7 7 9 11 13 17 19 20 18 17 16 15 13 10 11 13 10 6 3 3 4 4 5 8 10 14 15 18 19 15 15 17 17 18 22 26 24 23 24 20 18 20 22 23 22 25 25 22 21
40 41 41 41 41 41 42 43 44 45 46 46 47 47 47 47 47 47 46 45 43 40 37 33 31 30 29 29 29 31 32 32 29 22 16 12 10 8 7 7 8 10 11 14 17 18 19 18 15 13 13 12 9 10 8 4 4 1 2 4 6 7 10 13 17 17 19 20 15 16 18 17 19 23 25 23 23 23 23 22 20 21 22 20 22 24 22 21
39 41 41 41 42 42 43 43 44 45 46 47 47 47 48 48 48 47 47 46 44 42 39 35 32 29 28 28 29 31 32 32 28 21 15 11 8 8 6 7 8 9 10 12 15 16 16 17 15 13 14 13 10 12 8 3 5 3 6 7 7 8 11 14 18 19 19 18 18 18 18 17 19 21 21 21 22 23 24 24 21 21 21 20 21 22 20 20
39 40 41 41 42 43 44 44 44 45 46 47 47 47 48 48 48 48 48 47 46 43 40 37 33 30 28 28 29 30 32 32 27 20 14 9 7 7 6 6 7 8 9 11 14 14 13 14 16 15 14 12 10 10 7 3 4 3 9 10 10 10 11 12 15 18 19 18 21 22 19 18 19 19 18 19 21 22 23 24 22 22 21 20 20 20 21 20
39 39 40 42 43 44 45 45 45 46 47 48 48 48 48 48 48 48 48 48 47 45 42 39 36 31 28 29 30 31 32 31 27 20 13 8 7 8 7 6 7 9 11 13 14 13 14 15 14 13 12 12 11 8 5 5 3 4 8 10 9 9 10 9 9 15 20 20 24 26 21 20 20 19 17 17 18 18 20 22 21 20 20 20 20 20 22 22
38 39 39 41 43 45 46 46 47 47 48 49 49 48 48 49 49 49 49 49 48 46 44 41 38 33 29 29 30 31 32 31 26 19 12 8 8 10 9 7 9 12 14 15 14 14 16 15 11 12 11 9 9 9 9 10 8 5 2 4 6 7 7 8 8 10 17 19 23 27 24 22 21 20 19 18 17 16 17 20 20 20 20 21 21 21 22 23
37 38 39 40 42 44 46 47 48 48 49 50 50 50 49 49 49 50 50 49 49 48 46 43 40 35 30 29 30 31 32 31 25 18 12 8 9 12 11 9 11 14 16 14 13 15 16 14 12 12 10 8 9 9 10 9 8 7 4 1 2 3 4 6 7 8 11 14 17 20 21 22 21 20 19 17 16 15 14 15 18 19 19 20 20 20 21 22
36 37 38 39 41 43 45 47 48 49 51 52 52 51 51 50 50 50 51 50 50 49 48 45 41 37 31 29 30 31 32 30 23 17 11 8 10 14 13 11 13 16 16 14 13 15 14 12 12 12 10 10 11 10 9 7 4 5 5 3 3 2 3 6 7 7 8 11 12 13 14 15 18 19 18 16 15 14 13 13 14 16 17 19 20 21 21 21
36 37 38 38 40 42 44 46 48 50 51 53 54 53 52 51 51 51 51 51 51 50 49 46 42 38 33 31 31 31 32 29 21 15 9 8 11 14 14 13 15 17 15 13 14 16 14 12 12 12 10 10 10 10 10 8 7 9 8 6 5 5 1 5 7 7 8 9 10 10 10 11 13 16 16 16 14 13 14 13 14 16 17 18 20 21 21 21
35 36 38 38 39 41 43 45 47 49 51 53 55 55 54 53 52 52 52 52 51 51 50 48 44 39 35 32 31 31 31 27 20 13 8 8 11 15 15 15 17 17 15 14 14 14 13 12 12 11 9 9 9 8 9 9 10 11 10 8 5 6 3 2 5 6 7 8 9 10 10 10 11 13 15 15 13 12 13 14 15 16 17 18 18 18 17 16
34 35 37 38 39 40 42 43 46 48 50 52 55 56 55 54 53 53 52 52 52 51 51 49 46 40 36 33 31 31 31 27 20 13 8 9 13 17 17 16 15 15 15 15 13 12 10 10 11 10 9 10 10 9 9 8 9 9 8 7 6 6 4 0 3 4 5 6 8 9 9 11 12 12 14 14 10 10 13 15 16 16 16 16 14 12 12 12
33 34 35 38 39 40 41 43 44 47 49 51 54 56 56 55 54 54 54 53 52 52 51 51 48 42 38 35 32 31 31 27 20 15 10 11 15 18 18 17 14 13 15 17 14 12 11 10 9 9 10 11 10 9 8 7 7 7 6 4 6 6 5 1 4 5 5 7 8 8 8 11 13 13 13 12 9 11 13 14 15 14 13 12 10 10 11 11
32 33 34 37 38 40 41 42 43 45 48 50 52 55 56 56 55 56 55 54 53 52 52 52 50 45 40 36 34 32 32 28 21 16 11 13 18 18 17 17 16 15 14 14 13 12 12 9 7 9 10 10 9 8 6 5 5 4 4 2 5 4 5 1 5 6 7 8 6 6 8 10 11 12 13 11 11 13 12 11 11 12 11 11 11 10 10 11
31 32 34 36 38 39 40 42 43 44 46 48 51 53 55 56 56 57 57 56 54 53 52 52 51 48 43 38 35 32 32 28 21 15 11 15 18 17 18 19 20 19 15 13 12 11 11 8 7 7 8 7 6 6 5 4 3 2 2 2 3 4 5 2 6 3 5 6 3 5 7 8 8 11 13 13 12 11 9 9 9 9 10 10 10 10 10 10
30 31 33 35 37 38 40 41 43 44 45 47 50 52 54 56 57 57 58 57 56 54 53 52 51 49 44 39 35 33 32 29 20 14 11 15 18 18 20 20 18 18 17 15 13 11 10 7 5 5 6 5 3 4 3 1 3 2 0 2 3 2 3 2 5 3 4 2 3 6 7 6 5 9 11 11 9 7 7 8 7 7 8 9 9 9 9 9
30 31 32 34 37 38 39 41 42 44 44 46 49 51 53 55 56 57 58 58 57 55 53 52 51 49 46 41 37 34 32 29 21 13 11 14 18 19 20 18 16 15 15 15 11 9 9 6 4 3 3 3 2 2 1 3 4 3 1 1 2 2 2 4 5 6 6 2 3 6 6 4 6 7 8 7 6 6 7 7 6 7 8 8 9 9 9 9
29 30 32 34 36 38 38 40 42 43 44 45 48 50 52 54 56 57 58 58 58 57 54 52 51 50 48 44 38 34 32 30 22 14 10 13 17 19 19 16 14 14 13 13 9 7 6 4 3 3 1 1 1 1 2 4 4 3 2 3 3 2 4 5 5 6 5 4 3 4 5 7 8 7 7 6 6 6 6 6 7 7 8 8 8 8 8 8
29 30 32 33 36 38 38 39 41 43 44 44 46 49 51 53 55 57 58 58 58 57 55 53 52 51 50 46 40 35 32 30 24 15 9 10 14 17 17 15 14 12 9 10 7 6 5 3 1 1 3 5 4 3 4 4 4 4 3 3 5 5 5 4 3 5 4 4 3 4 5 7 7 7 7 6 6 5 4 5 6 7 7 7 7 7 8 9
30 30 32 33 35 37 38 39 40 42 43 44 45 48 50 52 54 55 57 58 58 58 57 54 53 52 51 47 42 36 32 30 26 16 9 6 8 13 15 15 16 12 9 8 7 6 5 2 1 2 4 5 3 1 3 4 2 2 4 5 7 7 7 6 3 6 5 4 5 5 5 5 5 5 6 6 5 4 3 4 5 6 6 5 6 7 8 10
31 31 32 33 34 36 38 39 39 41 43 43 44 47 49 51 53 54 56 57 58 59 58 55 53 52 50 48 44 38 33 30 27 19 11 6 3 8 10 12 15 13 11 8 7 7 4 3 5 4 4 6 7 8 9 9 7 4 2 4 7 9 8 5 6 8 5 1 3 5 4 4 3 3 4 4 5 4 3 4 5 6 6 5 6 7 9 10
32 31 32 33 34 36 37 39 40 40 42 43 43 46 48 50 52 53 55 57 57 58 59 57 54 52 50 48 45 40 34 30 28 22 14 7 2 5 7 9 13 13 11 8 7 7 4 5 6 6 9 10 10 10 11 10 8 6 3 0 5 8 6 4 6 7 3 2 1 3 2 3 2 3 3 4 5 4 3 5 5 4 5 6 7 8 10 11
33 32 32 33 34 35 37 39 40 40 41 42 43 45 47 49 50 52 53 55 56 56 58 57 55 52 49 48 46 41 36 30 28 25 18 10 2 1 3 9 13 10 10 10 9 7 4 4 7 9 10 9 9 10 9 10 9 5 3 2 6 5 4 4 3 4 2 3 0 2 2 5 4 4 4 3 4 5 5 6 5 4 5 7 8 9 10 11
34 33 33 33 34 35 36 38 40 40 40 41 42 44 46 47 49 51 52 54 55 55 56 57 56 52 50 49 47 43 38 32 28 26 21 14 6 2 4 10 13 9 7 10 9 5 4 6 9 10 10 9 9 9 8 8 7 5 3 4 7 3 1 3 3 2 2 3 1 1 3 6 6 5 4 3 4 5 6 6 6 6 7 8 9 10 11 12
34 34 33 34 34 35 37 38 40 41 41 40 41 43 45 46 47 49 51 52 54 55 55 55 56 54 50 49 47 44 40 34 28 26 23 17 10 5 4 8 10 9 7 10 9 6 7 8 9 10 9 9 9 8 5 5 6 5 5 4 6 7 7 6 5 3 4 3 2 1 3 5 6 5 4 4 4 3 4 5 5 6 7 9 11 11 12 13
34 34 34 34 35 36 37 38 40 41 41 40 40 41 43 44 46 48 49 51 52 54 54 54 55 55 52 49 47 45 41 36 29 26 24 20 13 7 2 4 7 10 9 9 9 6 8 8 9 11 9 8 7 6 4 3 5 5 7 8 11 12 7 3 2 3 3 3 2 2 3 5 7 6 4 4 3 3 4 3 4 6 8 10 11 12 13 14
33 33 34 34 35 36 38 39 40 41 40 40 39 40 42 43 44 46 48 49 51 52 53 52 54 55 53 49 47 45 43 38 31 26 24 21 16 10 3 1 4 10 10 9 9 7 9 9 8 10 8 6 5 5 6 5 5 5 7 10 11 10 7 5 1 2 4 5 4 5 5 5 8 8 6 5 3 3 4 3 5 7 8 10 11 12 13 14
32 32 33 35 36 37 39 40 40 40 40 39 38 39 41 42 43 45 47 48 50 51 52 52 53 54 53 50 47 45 43 40 34 27 23 22 19 13 7 2 2 9 12 8 7 9 10 8 7 6 6 5 5 6 7 6 8 9 9 9 8 7 5 4 1 4 5 4 6 9 8 4 8 10 8 6 4 3 4 5 7 9 9 11 12 13 14 14
31 32 34 36 38 39 40 41 41 40 39 39 38 38 39 41 42 44 45 46 48 50 51 51 52 53 53 51 48 45 43 41 37 29 23 21 20 17 10 5 1 6 10 6 4 9 12 10 7 6 6 6 6 8 8 7 10 11 9 7 5 5 3 1 2 4 3 3 6 8 8 5 7 10 8 7 4 3 6 8 9 11 11 12 13 14 14 14
32 32 35 37 39 40 41 41 41 40 39 38 37 37 38 39 40 42 44 45 46 48 50 50 50 51 52 51 49 46 43 41 38 32 25 21 20 19 14 7 3 4 7 5 4 8 12 11 8 7 8 8 9 10 10 9 11 9 6 5 4 4 4 3 5 4 2 4 6 6 6 6 7 8 9 8 6 6 8 10 11 12 13 13 14 15 15 15
33 34 36 39 41 42 42 41 41 40 39 38 37 36 38 38 39 41 42 44 45 46 48 49 50 50 51 51 50 47 44 42 39 35 28 22 19 19 16 10 4 1 3 4 6 8 10 10 9 9 11 12 12 11 10 11 12 8 4 3 3 4 5 5 6 5 2 2 3 4 6 7 7 9 11 12 10 9 10 12 13 13 14 14 14 15 15 15
34 35 38 40 42 43 42 41 41 40 39 38 36 36 37 38 38 39 41 42 44 45 47 48 49 49 50 50 50 49 45 42 40 37 30 23 19 18 17 13 9 3 0 2 6 9 8 7 8 11 13 14 12 10 9 9 10 7 3 2 3 2 2 4 4 4 3 2 2 2 6 7 6 9 11 12 12 11 11 12 14 15 14 14 15 16 16 16
36 37 38 40 42 43 42 41 41 41 39 37 36 36 37 37 38 38 39 40 42 44 45 47 48 48 49 49 49 49 47 43 40 38 33 25 20 19 17 16 13 7 2 2 6 9 8 6 8 13 14 12 12 11 8 7 7 6 5 3 1 2 4 3 3 3 4 3 4 4 6 6 5 8 11 13 13 12 12 13 14 15 15 15 16 17 17 17
37 37 38 40 42 42 42 41 41 41 39 37 36 36 36 37 38 38 38 39 41 43 43 45 47 48 48 49 49 49 48 44 41 38 35 29 22 18 17 16 15 11 5 1 3 7 8 6 7 13 13 11 12 11 8 6 6 5 7 8 6 5 6 5 3 2 3 4 7 8 7 7 6 8 11 13 13 13 13 14 14 16 17 17 17 17 18 18
36 36 37 39 41 41 41 41 41 41 39 37 36 36 36 37 37 38 38 38 40 41 42 44 46 47 48 48 48 49 48 45 42 38 36 32 25 19 16 15 14 13 10 4 1 5 7 6 8 12 13 13 14 11 8 7 7 6 7 8 7 6 8 8 6 3 4 6 7 9 9 7 6 7 10 13 14 14 13 13 14 16 18 18 17 18 19 19
36 36 37 38 40 40 40 40 41 40 39 37 36 36 37 37 37 38 38 38 39 40 41 42 45 47 48 48 48 48 47 46 43 39 36 34 28 20 17 16 14 13 12 8 1 2 5 7 9 11 13 16 17 13 12 10 9 7 7 8 8 8 7 8 8 5 6 7 6 8 8 8 7 6 9 13 14 14 13 11 13 16 18 18 18 19 20 19
37 36 37 38 39 40 40 40 40 40 38 37 36 37 37 37 38 38 38 38 38 39 40 42 44 46 47 48 48 48 47 46 44 40 37 34 29 23 21 20 17 14 12 10 5 1 4 7 10 11 14 19 19 17 17 15 12 9 9 10 10 9 7 8 9 9 8 7 8 10 10 9 8 7 8 11 12 12 12 10 12 16 19 19 19 20 20 20
39 38 38 38 39 39 39 39 40 39 37 36 36 37 37 37 37 38 38 38 38 39 39 41 43 45 46 47 48 48 48 46 44 41 39 35 30 26 25 23 19 15 11 11 9 4 2 5 9 12 14 17 18 19 20 18 15 12 10 10 10 10 10 9 9 12 13 11 10 13 12 10 8 7 8 9 10 11 11 12 13 16 19 21 20 21 22 23
41 40 39 39 39 39 39 39 39 38 37 37 37 38 38 37 37 38 38 38 39 39 39 40 42 44 45 46 46 47 47 46 44 42 40 37 33 29 28 24 20 16 12 10 10 7 3 5 9 12 12 14 17 20 21 19 17 15 13 11 10 11 13 12 11 13 16 14 13 14 14 11 9 8 9 11 13 13 14 15 15 16 18 20 21 23 24 25
42 41 41 40 40 39 39 38 38 38 38 37 37 38 39 38 37 37 38 39 38 38 39 40 41 43 45 45 45 46 46 46 44 42 41 40 36 33 31 26 22 19 14 11 10 9 7 4 8 12 12 13 16 21 23 22 20 19 18 17 15 14 16 16 14 13 14 14 13 13 13 13 13 11 12 13 15 14 13 14 15 16 16 16 19 24 25 26
43 43 42 41 40 40 39 38 38 38 39 39 39 39 39 39 38 38 38 38 38 39 39 40 41 43 44 45 46 46 46 46 45 43 42 40 38 35 33 29 24 21 17 13 12 10 8 6 5 9 13 14 16 19 21 22 23 22 22 22 20 18 18 18 16 13 13 13 13 13 13 15 16 14 11 11 12 12 12 11 12 14 15 16 19 22 24 25
44 44 43 42 41 41 40 39 39 39 39 39 40 40 40 39 38 38 38 38 38 38 39 40 41 42 43 44 45 45 45 46 46 45 44 41 38 34 33 31 28 24 19 16 15 12 8 7 7 7 11 14 16 17 18 19 22 24 25 24 23 21 21 20 18 16 16 14 14 16 16 17 18 15 12 11 11 13 12 9 8 11 16 18 21 24 26 27
44 44 43 42 42 42 41 40 40 40 40 41 41 41 41 40 40 39 39 38 38 39 40 41 42 42 43 44 45 45 45 45 45 45 45 43 40 36 33 32 30 27 22 18 17 15 12 11 10 8 10 13 15 17 18 19 22 24 26 27 27 24 23 22 20 19 19 17 17 19 19 18 18 16 15 13 13 16 15 11 8 10 14 17 20 24 25 27
44 43 42 42 42 41 41 40 41 41 42 42 43 43 42 42 41 40 39 38 38 39 40 41 42 43 43 43 44 44 45 45 45 46 45 43 42 39 35 33 31 28 24 20 19 17 16 15 13 10 10 12 15 18 19 19 20 23 25 26 27 26 25 24 23 23 23 22 20 19 18 18 19 18 17 14 14 17 16 14 11 10 11 15 18 21 22 24
45 42 40 40 41 41 40 40 41 42 43 44 44 44 44 43 43 42 40 39 39 40 41 42 43 43 43 44 44 44 44 45 46 47 45 43 43 41 38 35 32 29 26 22 19 19 18 18 16 13 12 12 13 16 17 18 20 22 23 22 22 24 24 24 24 26 27 26 23 19 18 19 20 20 20 16 13 15 15 15 15 13 12 15 18 20 21 25
47 43 40 40 41 41 40 40 41 43 44 46 46 45 45 44 43 42 41 40 40 40 41 43 43 44 44 45 45 45 44 45 46 47 45 43 43 41 39 36 31 27 26 23 18 19 20 19 18 16 14 13 12 12 15 17 20 23 23 21 21 23 24 24 24 26 28 28 26 23 21 21 22 23 23 20 16 15 15 16 16 15 15 18 20 20 22 26
47 43 41 42 42 41 41 42 44 45 46 46 46 45 45 45 43 42 41 40 40 41 42 43 44 44 45 46 46 45 45 45 46 47 46 44 43 41 39 36 29 25 25 24 20 19 21 22 21 18 15 14 13 11 13 16 19 21 23 24 24 26 27 27 25 23 24 26 28 28 25 23 24 25 25 25 22 19 18 17 16 17 19 21 21 21 23 26
47 44 43 44 43 42 43 45 46 46 46 45 45 45 45 45 44 43 42 40 41 42 43 44 45 45 46 47 47 46 46 45 45 46 46 45 43 41 39 36 32 28 27 25 22 19 21 24 24 21 18 16 15 14 13 15 16 18 20 22 25 27 29 29 26 23 22 24 26 30 30 28 27 26 26 27 25 23 22 19 16 16 18 20 20 21 24 26
48 46 46 46 45 45 46 47 47 47 46 46 46 46 47 46 46 45 44 42 42 43 44 45 46 47 48 48 48 48 47 46 46 45 45 45 43 41 39 37 35 32 29 28 26 23 22 25 26 24 21 19 18 17 16 15 15 16 17 19 21 23 26 29 27 24 25 26 26 29 34 34 30 27 26 27 28 28 27 24 20 18 17 19 22 24 26 28
51 50 49 48 47 48 49 49 49 48 47 47 47 47 48 48 48 47 46 46 46 46 46 47 48 49 49 49 50 50 49 48 46 45 46 46 44 42 40 39 38 35 32 31 31 28 25 26 27 26 24 23 21 19 18 17 16 17 17 17 17 18 22 26 26 24 25 25 25 29 35 36 33 31 29 28 29 30 30 29 28 24 20 20 22 24 28 31
56 54 53 51 51 51 52 51 50 50 49 49 48 48 49 50 49 48 48 49 49 49 49 49 50 51 51 51 51 51 50 49 47 46 47 47 46 44 41 40 40 38 36 34 32 30 28 28 28 27 27 27 24 22 19 17 17 18 17 16 17 19 21 23 25 25 24 23 25 28 32 35 34 34 33 31 31 31 29 30 30 27 23 23 23 24 27 31
Wind_Direction
19 17 14 10 7 5 4 3 3 4 5 6 7 7 8 6 4 2 1 359 356 353 351 350 350 350 351 353 354 356 359 1 2 1 0 6 15 26 35 37 51 68 76 80 82 85 83 81 83 85 89 91 89 88 85 80 87 98 106 138 150 146 154 181 181 188 202 207 215 224 235 232 203 196 199 203 210 212 212 203 196 196 199 201 202 209 219 223
17 16 14 12 9 7 5 3 3 3 4 5 6 7 8 7 5 3 2 0 358 355 353 352 352 352 353 354 353 356 359 359 0 2 1 6 17 25 36 42 57 72 77 81 85 88 86 85 84 81 81 82 86 91 92 83 82 107 131 164 191 180 175 195 190 195 209 209 218 225 230 225 197 194 198 200 209 209 204 207 207 208 208 208 209 211 220 225
14 14 13 12 10 8 6 4 3 3 3 4 5 6 7 7 6 4 3 1 359 356 354 353 353 353 354 355 353 355 358 358 360 1 0 7 18 25 36 47 64 78 82 85 89 91 86 80 76 77 77 75 81 92 99 92 79 122 160 190 234 228 200 195 189 197 208 209 213 210 215 218 199 192 193 195 207 207 197 200 210 214 214 213 212 213 219 224
12 12 13 12 11 9 7 5 4 3 3 4 4 5 6 7 6 5 4 2 0 358 356 354 354 354 355 355 354 355 356 358 359 360 360 8 22 27 39 55 70 85 89 90 92 93 88 79 70 71 73 68 63 66 83 107 77 57 253 247 246 233 217 204 198 202 208 208 200 196 208 215 203 193 194 199 206 207 202 201 205 211 215 218 217 216 222 229
11 13 13 13 12 10 9 7 5 3 3 3 4 4 5 6 6 5 4 3 1 360 357 355 354 355 356 356 355 355 356 357 358 359 1 10 27 35 45 63 77 88 88 92 94 90 89 89 76 60 56 57 52 46 44 96 83 8 271 248 247 238 224 211 206 207 209 208 195 196 206 206 207 202 200 205 209 214 210 208 211 211 216 224 224 224 229 234
10 12 14 14 13 12 10 8 6 5 4 4 4 4 4 5 5 5 5 4 2 1 359 356 355 355 357 357 356 356 356 356 357 0 6 16 37 48 53 69 82 84 81 92 96 85 85 87 73 55 47 53 55 50 46 88 105 281 263 253 247 229 219 214 210 209 208 204 196 202 206 199 210 212 202 203 210 219 216 213 218 220 220 224 225 226 229 232
9 11 14 15 15 14 12 10 8 6 5 4 4 3 3 4 4 5 5 4 3 2 0 358 356 356 357 357 357 357 356 356 358 3 12 28 51 61 64 76 82 80 82 91 93 87 81 74 65 56 51 55 54 61 70 61 57 268 256 256 247 215 203 198 197 204 206 204 200 206 205 196 207 209 200 203 212 219 216 213 215 217 218 219 224 229 231 236
7 9 13 15 16 15 14 12 10 8 7 6 5 4 3 3 3 4 4 4 4 3 1 360 358 358 357 357 357 357 357 356 359 6 17 37 61 71 74 85 90 88 87 84 84 85 81 75 72 64 56 51 41 49 63 40 2 333 281 242 240 219 202 187 176 188 201 205 204 207 209 204 203 202 204 210 213 213 212 213 212 212 216 224 232 237 238 242
6 7 10 14 16 16 15 14 12 10 9 8 6 5 4 3 3 3 4 4 4 4 2 1 0 359 357 357 358 358 358 358 2 12 23 45 71 76 81 97 104 100 94 87 85 84 81 81 80 70 58 42 26 35 61 43 345 342 28 78 205 203 205 200 186 175 185 191 195 204 210 210 206 202 207 208 203 205 207 209 212 215 222 232 241 244 245 246
4 5 6 10 14 15 15 14 13 12 11 10 8 7 5 4 3 3 3 4 4 4 4 3 2 1 358 357 359 359 1 1 6 19 33 60 78 80 88 108 110 102 96 92 96 91 81 76 75 72 60 41 30 28 55 60 2 12 38 37 62 115 191 217 208 190 182 179 181 190 197 202 206 207 207 200 194 200 203 205 215 223 232 239 245 248 251 252
3 3 3 6 9 11 13 13 13 12 12 12 10 9 7 5 3 3 3 3 4 5 5 4 3 1 359 358 359 1 2 3 11 26 46 75 85 86 94 113 114 104 98 96 104 99 77 67 69 73 64 48 41 33 42 61 63 60 58 47 51 65 113 213 211 206 191 181 180 186 191 198 206 209 205 200 199 204 208 218 228 235 241 245 250 253 253 252
1 0 0 2 5 7 9 11 11 11 12 12 12 10 9 7 5 3 3 4 4 5 5 4 4 2 360 358 359 2 4 7 15 29 51 79 87 89 97 114 115 107 103 97 99 95 75 71 75 71 61 51 52 54 56 71 81 72 53 41 54 58 34 238 214 215 203 193 193 198 204 209 218 220 213 208 210 218 225 229 231 235 243 249 255 253 244 236
359 358 358 359 2 4 6 8 9 10 10 11 12 11 10 8 6 5 4 4 5 5 5 5 4 3 1 360 360 2 5 9 17 28 45 72 82 86 95 107 106 104 108 104 100 96 87 89 85 69 60 66 71 78 83 79 83 77 48 24 23 37 36 52 199 210 212 209 206 206 211 220 228 227 217 214 218 234 240 233 230 237 244 249 248 232 214 206
356 356 355 356 359 1 3 5 7 8 9 9 11 12 11 9 7 6 5 5 5 6 6 5 5 4 2 0 0 3 7 9 19 28 38 68 81 84 92 98 96 100 109 108 103 93 85 83 79 71 69 80 85 83 83 71 74 82 60 19 349 13 33 22 186 173 190 212 210 212 227 232 232 225 214 217 229 241 245 238 234 239 239 234 220 202 197 197
352 354 353 353 356 358 360 2 4 6 7 7 9 10 11 10 8 7 7 6 6 6 6 5 5 4 3 2 1 4 8 10 22 34 46 79 88 88 90 96 101 106 109 106 101 90 84 77 74 84 79 78 80 74 68 60 65 77 68 9 323 4 28 54 165 167 190 201 204 223 247 247 235 220 203 208 232 240 241 240 235 231 223 212 205 201 202 203
348 352 351 350 353 355 357 359 1 3 5 6 7 9 10 10 8 8 8 7 7 7 7 6 5 5 4 2 2 5 8 11 24 44 66 92 97 95 95 102 107 110 112 110 108 99 90 81 80 88 71 62 77 74 60 43 29 31 69 288 302 28 35 126 150 166 199 195 218 239 259 267 237 211 200 208 230 234 229 227 222 216 212 208 211 213 213 214
343 348 349 348 350 352 354 356 358 0 3 4 5 7 9 9 8 7 8 8 8 7 8 7 6 5 4 2 3 6 9 12 24 47 71 93 98 98 99 105 107 110 116 115 111 104 92 78 82 92 67 57 90 96 73 350 304 298 3 272 260 70 43 174 181 193 179 180 279 245 255 271 224 201 205 212 217 210 208 210 206 209 216 219 224 225 225 225
338 344 346 346 347 349 351 353 355 358 1 3 3 5 7 8 8 7 7 8 8 8 8 8 7 6 4 3 4 6 9 12 22 43 70 93 101 102 103 106 108 113 119 118 107 91 83 67 56 85 97 98 119 127 213 274 279 270 238 232 230 189 190 207 210 200 188 218 260 242 248 214 172 176 193 203 204 201 204 205 209 221 230 233 232 231 228 223
333 338 342 344 344 347 348 350 352 355 358 1 1 3 5 7 7 6 7 8 8 8 7 7 8 7 5 5 5 5 8 12 19 38 72 100 107 108 106 107 112 114 120 124 115 91 92 84 52 54 48 40 83 153 244 279 284 273 240 189 182 198 201 197 199 194 212 249 221 226 230 180 169 174 187 203 210 211 213 214 220 228 231 232 231 225 215 200
328 333 337 340 341 344 347 347 349 352 355 358 359 1 4 6 6 5 6 7 8 7 7 7 8 7 6 6 4 4 7 11 17 32 62 100 113 116 117 120 122 118 119 127 125 115 128 144 103 4 325 319 301 251 263 298 282 257 240 217 213 197 160 132 168 191 225 255 205 203 207 190 193 195 199 212 214 211 218 223 222 220 222 223 222 212 195 184
324 329 332 336 338 341 345 346 346 349 352 356 357 359 2 4 5 5 5 6 7 7 7 7 8 7 6 5 4 3 5 10 16 26 43 76 116 127 131 134 133 132 132 132 132 133 138 132 42 312 303 320 341 11 9 21 38 200 200 219 230 203 149 120 171 200 216 233 211 206 200 198 210 212 216 220 217 213 220 238 226 217 222 219 213 201 190 185
321 326 328 332 335 338 343 345 344 346 349 353 355 356 360 2 3 4 4 4 6 7 7 7 8 7 6 5 4 3 4 9 14 20 32 35 93 133 139 141 139 141 142 134 129 129 114 33 25 17 37 58 64 58 53 65 73 74 163 216 216 197 170 158 195 195 190 228 224 216 208 201 202 217 236 225 216 217 225 248 232 223 230 216 203 197 191 188
318 323 326 329 332 334 340 344 344 344 346 350 352 354 357 0 2 3 3 3 5 6 7 7 7 7 6 5 4 3 3 7 11 16 28 32 47 143 144 146 143 144 148 146 132 124 89 19 29 56 74 76 74 67 59 63 65 56 36 335 185 188 203 226 215 189 158 16 294 194 234 263 237 221 235 216 212 220 221 233 231 224 223 208 204 198 192 191
314 319 323 326 329 331 337 342 343 343 343 346 349 351 355 358 0 2 2 2 3 4 6 7 6 6 5 5 4 3 3 5 9 12 22 40 52 185 128 139 144 146 159 156 134 127 112 55 61 79 92 94 83 75 68 63 59 50 44 126 171 193 249 247 206 161 109 4 348 148 289 301 300 254 237 215 219 227 214 221 224 210 212 217 215 205 195 195
312 316 321 324 327 329 333 339 342 342 341 343 346 348 352 356 359 360 1 1 2 2 4 6 5 5 5 5 5 3 2 4 6 8 17 34 48 50 105 136 149 156 166 149 132 138 132 92 89 97 102 103 85 70 65 57 38 20 50 157 185 188 82 105 99 96 25 343 305 63 334 317 313 284 255 219 220 226 206 206 208 199 211 221 216 209 205 203
309 313 317 321 324 326 330 335 339 340 339 340 343 345 349 354 357 358 360 0 0 1 3 4 5 4 4 4 5 3 2 1 2 6 13 25 38 57 118 144 158 181 183 147 138 144 131 107 103 105 95 89 88 81 71 43 14 18 57 106 136 112 96 92 70 29 349 327 289 322 344 333 334 318 270 225 212 222 205 197 209 215 220 220 213 210 211 211
307 310 314 318 321 323 326 331 335 337 337 337 340 343 346 351 355 357 359 359 359 0 1 2 4 4 3 3 4 3 2 0 359 2 9 18 30 43 117 162 170 196 195 149 141 137 127 125 115 111 102 92 99 111 114 67 39 57 79 96 112 114 115 126 58 11 347 342 319 287 299 327 341 330 279 249 227 224 220 208 235 241 230 223 219 216 215 218
304 308 312 315 317 320 323 327 332 335 335 334 336 340 344 349 353 355 357 358 358 359 359 0 2 4 3 2 3 3 2 0 358 359 4 10 19 31 48 197 185 193 188 155 156 155 131 126 121 120 123 121 128 129 112 87 86 104 102 105 124 138 158 195 238 26 34 28 3 315 306 336 336 315 283 260 237 232 245 246 255 255 244 233 227 225 223 224
302 306 310 312 314 317 321 324 328 332 333 332 333 337 341 346 350 353 355 357 358 358 358 359 0 2 3 2 2 2 1 359 358 357 359 4 9 19 37 17 209 186 184 172 170 171 152 138 132 133 134 135 151 138 110 95 105 104 92 94 116 138 162 207 263 41 40 15 337 319 310 317 323 314 293 261 238 246 261 255 255 254 249 243 236 233 232 232
299 304 308 309 312 315 318 321 325 328 330 330 330 333 339 343 348 351 352 355 357 357 357 358 359 0 1 1 1 1 1 359 358 357 355 359 4 9 23 39 66 186 192 198 189 175 168 157 148 146 134 128 143 141 128 122 115 101 90 98 115 131 146 141 66 65 37 348 323 314 298 284 313 322 305 270 242 242 259 258 259 257 253 250 245 241 240 239
296 301 304 306 310 312 315 318 321 325 328 328 328 330 336 341 345 348 349 352 355 356 356 357 357 359 359 359 0 0 359 358 358 356 353 354 1 4 12 35 72 181 195 202 193 178 174 169 163 158 149 148 148 139 137 130 111 95 91 99 106 131 136 93 78 89 61 357 339 318 288 277 302 318 312 289 255 231 245 256 262 262 259 257 253 249 247 247
293 297 300 304 307 310 313 316 318 321 324 326 326 327 333 338 343 346 347 349 352 354 356 356 356 358 358 358 359 359 358 358 357 356 354 352 354 359 5 14 32 132 190 195 189 182 181 184 184 172 159 159 152 136 136 129 110 100 95 77 79 113 129 114 85 66 37 350 345 314 274 267 287 302 306 300 277 248 249 261 265 266 263 261 259 256 255 255
291 294 298 301 304 307 310 313 315 318 321 323 324 324 329 335 340 343 345 347 349 352 354 355 354 356 357 356 357 357 357 357 357 356 355 351 347 351 358 1 5 14 339 216 200 191 188 193 191 177 162 157 149 134 132 136 128 128 131 62 58 92 151 152 116 58 10 272 219 245 259 263 297 307 303 304 290 267 264 271 269 272 274 269 264 261 259 260
290 292 295 299 301 305 308 311 313 315 318 321 322 322 326 332 336 339 342 345 347 349 352 354 353 354 356 356 355 355 356 356 356 355 354 351 343 343 350 357 1 5 347 248 216 203 200 199 185 178 167 154 155 151 140 150 158 151 157 164 159 250 255 218 146 70 10 298 239 242 248 245 268 291 299 308 302 284 277 277 271 272 275 273 268 265 264 265
288 290 293 296 298 302 306 308 311 313 316 318 320 320 324 328 332 336 340 342 344 347 349 351 352 352 354 355 354 354 354 355 355 355 353 351 345 340 342 348 356 359 353 319 216 212 217 214 185 181 176 162 170 175 157 166 188 182 184 190 189 209 233 232 180 95 349 287 256 262 256 244 260 286 302 310 309 300 289 285 279 274 274 274 272 271 271 271
286 288 290 293 295 299 303 306 308 310 313 316 318 319 321 325 329 332 336 340 342 344 347 349 350 350 352 354 354 353 352 352 353 354 353 351 347 340 335 336 344 351 352 1 187 220 234 227 193 188 188 172 168 175 172 183 209 214 201 202 212 221 232 233 200 181 281 264 253 259 250 250 280 304 315 315 314 312 301 291 286 281 279 279 280 280 279 278
283 286 287 289 292 296 301 304 305 308 311 314 316 317 319 322 325 329 333 337 340 341 344 347 348 348 349 352 353 353 352 350 350 352 352 351 350 343 332 327 330 339 347 356 6 216 238 236 219 210 203 182 168 174 188 196 206 206 197 209 235 239 236 235 212 205 262 266 257 249 241 257 282 299 319 319 315 315 311 296 283 279 279 278 279 281 283 284
282 283 285 287 291 295 298 301 303 306 309 312 313 315 318 320 322 326 330 334 337 339 341 344 346 347 348 350 350 350 351 350 348 349 349 350 350 342 328 321 319 325 338 348 349 266 223 232 234 231 214 196 185 185 191 196 201 209 211 212 228 232 220 225 225 222 239 251 248 240 238 255 267 274 303 313 310 312 312 298 280 276 277 279 281 284 286 288
280 282 284 286 289 293 296 298 300 303 307 309 311 313 316 318 319 323 327 331 334 337 339 341 343 344 346 348 349 348 349 348 346 345 345 348 348 338 329 323 317 316 325 336 342 332 235 221 234 239 225 216 211 197 190 198 208 220 226 216 223 230 216 217 234 236 234 235 235 233 236 248 257 268 291 299 296 298 299 293 287 282 280 280 282 284 287 289
279 281 282 284 287 290 293 296 298 301 303 306 309 312 315 316 316 320 324 327 331 334 336 339 340 342 344 346 348 348 347 346 344 342 342 344 345 339 334 328 318 311 311 321 331 333 312 220 224 235 233 230 225 207 195 202 209 214 222 217 221 228 218 217 233 238 236 239 240 234 233 240 247 262 277 280 283 285 283 286 290 292 290 285 282 282 285 289
277 279 280 282 285 288 290 293 295 297 300 304 307 310 313 314 314 316 320 324 328 331 333 335 337 339 341 343 346 347 346 345 343 341 339 340 342 340 337 332 321 311 304 303 311 321 322 267 221 224 228 230 225 211 206 209 209 208 213 213 214 218 217 222 231 234 237 247 252 244 239 238 235 245 264 275 284 284 280 285 287 288 292 290 284 284 286 288
276 277 278 280 283 285 288 290 292 294 298 301 305 307 310 312 311 313 317 321 325 328 330 331 333 336 339 340 343 345 345 344 342 340 338 338 339 339 336 333 326 315 302 292 294 304 312 298 245 221 223 228 226 217 215 220 220 217 215 213 217 218 217 224 230 228 233 248 254 247 245 242 234 237 255 275 286 280 277 293 293 279 280 283 283 285 288 288
274 275 276 278 281 283 285 287 289 292 295 299 302 304 307 309 309 310 313 317 321 324 326 328 330 333 335 337 340 342 343 343 341 338 336 336 337 337 335 332 328 321 306 288 283 287 290 291 279 244 230 232 232 226 225 230 230 227 223 218 220 222 218 223 230 228 230 241 246 242 242 240 233 235 247 262 274 272 271 288 292 278 280 285 286 286 288 290
272 273 275 277 279 281 284 285 287 290 294 297 299 301 303 305 307 308 310 313 317 320 323 324 327 329 332 334 337 340 342 342 341 338 335 334 334 334 333 330 327 324 314 291 276 276 277 279 281 272 250 238 235 233 234 237 236 234 232 226 223 224 221 223 231 233 232 234 238 240 242 240 233 235 247 257 269 272 267 263 269 282 291 296 298 295 293 293
270 272 274 276 278 280 282 284 287 290 293 295 297 298 300 302 304 305 307 309 313 316 318 321 323 326 328 330 333 336 339 341 341 339 335 331 330 330 331 329 326 323 316 299 280 272 273 275 279 284 272 251 237 232 235 242 241 239 240 235 230 230 229 227 231 233 231 232 235 237 245 244 234 235 246 254 266 269 262 255 260 276 287 290 295 297 296 297
267 269 273 276 277 278 280 284 287 289 291 293 294 297 299 300 302 303 304 306 308 311 315 317 320 323 325 327 329 333 336 338 339 339 336 331 327 327 328 327 326 322 317 309 288 270 270 275 278 285 285 270 248 232 231 242 246 243 243 243 239 239 239 237 239 238 233 233 236 238 245 244 233 233 243 249 258 264 261 258 260 264 270 276 283 290 294 297
264 266 270 273 275 276 280 283 283 284 287 290 293 296 297 298 300 302 302 303 304 307 311 314 317 320 322 324 326 329 332 335 337 338 336 331 326 325 324 324 326 323 318 314 295 270 266 272 276 281 285 282 266 240 229 236 242 241 241 240 239 243 246 245 245 245 239 236 238 238 243 243 232 231 241 244 246 252 255 258 259 259 265 271 276 284 291 294
261 263 266 269 272 275 277 278 278 281 285 288 292 295 296 297 300 301 302 302 302 304 308 311 314 317 319 321 323 325 328 331 334 337 336 332 326 323 322 323 326 322 315 312 303 280 266 266 271 275 280 281 271 250 234 235 240 241 240 237 235 239 245 246 248 251 247 245 244 239 241 245 237 232 239 244 245 247 251 260 264 262 263 266 270 279 288 291
258 259 261 264 267 270 271 273 276 280 284 287 290 292 293 295 298 299 301 301 300 302 305 309 312 314 316 318 320 322 324 327 331 334 335 333 327 323 321 321 321 320 315 310 306 293 273 265 266 268 270 273 270 260 246 239 241 243 242 242 241 242 248 252 258 262 255 252 251 243 239 242 239 234 238 244 246 247 248 255 264 266 268 269 271 277 281 284
256 257 258 260 262 265 267 270 274 278 281 284 286 288 290 293 295 297 300 300 299 300 303 306 309 311 313 315 317 318 320 323 327 331 333 332 328 323 319 316 315 317 314 307 303 297 281 268 264 262 262 264 268 267 262 254 250 247 245 247 248 249 253 255 258 260 253 253 256 249 241 240 238 236 238 241 243 245 247 249 255 261 267 272 276 278 277 278
254 255 256 259 261 262 264 268 271 275 278 280 282 285 288 290 292 295 297 297 297 299 301 304 306 308 310 312 314 316 317 318 323 327 329 330 328 324 317 311 310 311 311 308 305 300 289 277 267 261 259 261 264 269 273 273 265 253 245 247 250 253 256 254 250 251 252 252 254 251 245 242 238 237 239 240 241 245 247 250 254 255 255 264 275 279 278 279
252 254 255 258 260 262 263 266 269 272 275 277 279 282 285 287 289 292 293 295 296 297 299 301 303 306 308 309 311 313 313 315 319 323 325 327 328 326 320 311 307 308 308 309 307 300 293 285 273 262 257 259 262 266 274 278 271 260 252 249 251 255 259 258 251 250 252 251 250 250 248 245 240 238 241 243 243 244 244 247 253 253 248 255 268 276 279 282
Height
10811 10808 10805 10802 10799 10796 10792 10789 10785 10781 10777 10772 10768 10764 10760 10756 10752 10749 10745 10742 10739 10736 10733 10731 10728 10726 10724 10721 10719 10715 10712 10709 10706 10703 10701 10701 10700 10699 10699 10700 10700 10701 10702 10702 10702 10701 10700 10701 10700 10700 10701 10701 10702 10703 10704 10705 10705 10706 10706 10706 10706 10706 10707 10708 10710 10711 10711 10712 10713 10714 10714 10715 10717 10718 10719 10720 10720 10720 10720 10721 10723 10724 10725 10726 10727 10728 10729 10728
10811 10808 10806 10802 10799 10796 10793 10789 10785 10781 10777 10773 10769 10765 10761 10757 10753 10749 10745 10742 10739 10736 10733 10730 10728 10726 10724 10721 10718 10715 10712 10709 10706 10703 10701 10700 10700 10700 10700 10700 10701 10702 10703 10704 10704 10703 10702 10703 10702 10702 10702 10702 10703 10704 10705 10706 10707 10707 10707 10707 10706 10706 10708 10709 10710 10711 10711 10712 10713 10714 10714 10714 10716 10717 10718 10719 10720 10719 10720 10721 10722 10722 10724 10725 10726 10727 10727 10727
10811 10809 10806 10803 10799 10796 10793 10790 10786 10782 10778 10774 10770 10766 10761 10757 10753 10749 10746 10742 10739 10736 10733 10730 10728 10726 10724 10721 10718 10715 10712 10709 10705 10703 10701 10700 10700 10700 10700 10701 10702 10703 10704 10704 10705 10704 10704 10704 10704 10703 10703 10702 10703 10705 10706 10707 10708 10708 10708 10708 10707 10706 10708 10709 10710 10710 10710 10712 10713 10713 10713 10714 10715 10716 10717 10718 10719 10719 10720 10721 10721 10721 10723 10724 10725 10725 10726 10726
10812 10809 10806 10803 10800 10796 10793 10790 10787 10783 10779 10775 10771 10766 10762 10758 10754 10750 10746 10742 10739 10736 10733 10730 10727 10726 10724 10721 10718 10715 10712 10708 10705 10703 10701 10700 10700 10700 10701 10702 10703 10703 10704 10704 10705 10704 10704 10705 10705 10704 10703 10703 10704 10705 10706 10708 10710 10710 10708 10708 10707 10706 10707 10709 10709 10709 10710 10712 10714 10713 10713 10714 10715 10716 10717 10718 10718 10719 10720 10720 10720 10721 10722 10723 10724 10724 10725 10725
10813 10810 10807 10804 10800 10797 10794 10790 10787 10783 10780 10776 10772 10767 10763 10759 10755 10751 10747 10743 10740 10736 10733 10730 10728 10726 10724 10721 10718 10715 10712 10708 10705 10703 10701 10700 10700 10700 10701 10702 10703 10704 10704 10705 10705 10705 10705 10705 10705 10705 10704 10704 10705 10706 10707 10709 10710 10710 10709 10709 10709 10707 10707 10708 10709 10710 10711 10713 10714 10713 10714 10714 10715 10717 10718 10718 10718 10718 10719 10720 10720 10721 10721 10722 10723 10723 10723 10723
10813 10810 10808 10804 10801 10798 10794 10791 10787 10784 10780 10776 10773 10768 10764 10760 10756 10752 10748 10744 10740 10737 10734 10730 10728 10726 10723 10721 10718 10715 10712 10708 10705 10702 10700 10699 10699 10700 10701 10703 10703 10704 10705 10705 10706 10706 10705 10705 10705 10705 10706 10706 10706 10707 10708 10710 10710 10709 10708 10708 10708 10707 10707 10708 10709 10710 10711 10712 10713 10713 10714 10715 10716 10717 10718 10718 10718 10718 10718 10719 10719 10720 10720 10720 10721 10721 10721 10721
10814 10811 10808 10805 10802 10798 10795 10791 10788 10784 10781 10777 10773 10769 10765 10761 10757 10753 10748 10745 10741 10737 10734 10731 10728 10726 10723 10721 10718 10715 10712 10708 10705 10702 10700 10699 10699 10700 10701 10703 10704 10704 10705 10705 10706 10706 10706 10705 10705 10706 10706 10706 10707 10708 10709 10710 10710 10709 10708 10708 10708 10707 10707 10708 10709 10709 10710 10711 10713 10713 10714 10716 10716 10717 10717 10717 10717 10717 10717 10718 10718 10719 10719 10719 10719 10719 10718 10718
10814 10811 10809 10806 10802 10799 10795 10792 10788 10785 10781 10777 10774 10770 10766 10762 10758 10754 10749 10745 10742 10738 10734 10731 10728 10726 10723 10721 10718 10715 10711 10707 10704 10701 10700 10699 10699 10699 10701 10703 10704 10705 10705 10706 10706 10707 10706 10706 10706 10705 10706 10707 10708 10709 10710 10710 10710 10709 10708 10708 10707 10707 10707 10708 10708 10709 10710 10711 10712 10713 10714 10715 10716 10716 10717 10716 10716 10716 10716 10717 10717 10718 10718 10718 10717 10717 10716 10716
10815 10812 10809 10806 10803 10800 10796 10793 10789 10785 10782 10778 10774 10770 10766 10762 10758 10754 10750 10746 10742 10738 10735 10731 10729 10726 10723 10721 10718 10715 10711 10707 10704 10701 10699 10698 10699 10699 10701 10703 10704 10705 10706 10706 10707 10707 10707 10707 10706 10706 10707 10709 10709 10710 10710 10712 10711 10709 10708 10708 10707 10707 10707 10708 10709 10710 10711 10712 10713 10714 10714 10715 10716 10716 10716 10716 10716 10716 10716 10716 10717 10717 10717 10716 10715 10715 10714 10715
10815 10812 10810 10807 10804 10800 10797 10793 10790 10786 10783 10779 10775 10771 10767 10763 10759 10755 10751 10747 10743 10739 10735 10732 10729 10726 10723 10721 10718 10715 10711 10707 10704 10701 10699 10698 10698 10699 10701 10703 10704 10704 10706 10707 10707 10707 10708 10708 10708 10708 10709 10710 10710 10710 10711 10712 10712 10709 10708 10707 10707 10708 10708 10708 10709 10710 10711 10712 10713 10714 10714 10715 10716 10716 10716 10716 10716 10716 10716 10716 10716 10716 10716 10715 10714 10714 10714 10714
10816 10813 10810 10807 10804 10801 10797 10794 10791 10787 10784 10780 10776 10772 10768 10764 10760 10756 10752 10748 10744 10740 10736 10733 10729 10726 10723 10721 10718 10715 10711 10708 10704 10701 10699 10698 10698 10699 10701 10703 10704 10705 10706 10707 10707 10708 10709 10709 10709 10710 10710 10710 10711 10711 10710 10711 10711 10710 10709 10708 10708 10709 10709 10709 10709 10710 10711 10712 10713 10713 10714 10715 10715 10716 10716 10716 10716 10716 10716 10716 10716 10715 10715 10714 10714 10714 10714 10714
10816 10813 10810 10808 10805 10801 10798 10795 10791 10788 10784 10781 10777 10773 10769 10765 10761 10757 10753 10749 10745 10741 10737 10734 10730 10727 10724 10721 10719 10715 10712 10708 10705 10702 10700 10699 10699 10699 10701 10703 10704 10705 10706 10707 10708 10709 10709 10710 10710 10711 10711 10710 10711 10710 10710 10710 10711 10710 10710 10710 10710 10710 10710 10710 10710 10711 10712 10712 10713 10714 10714 10715 10715 10716 10716 10716 10716 10716 10716 10715 10715 10714 10714 10714 10714 10714 10713 10713
10817 10813 10810 10808 10805 10802 10799 10795 10792 10789 10785 10782 10778 10774 10770 10766 10762 10758 10754 10750 10746 10742 10738 10734 10731 10728 10724 10722 10719 10716 10712 10709 10705 10703 10701 10700 10700 10700 10702 10704 10705 10706 10708 10709 10710 10710 10710 10710 10710 10711 10711 10710 10711 10710 10710 10711 10711 10711 10712 10712 10712 10712 10712 10711 10712 10712 10713 10713 10713 10714 10714 10715 10715 10715 10715 10715 10715 10715 10715 10714 10714 10714 10714 10714 10714 10713 10713 10713
10817 10814 10811 10808 10806 10803 10799 10796 10793 10789 10786 10783 10779 10775 10771 10767 10763 10759 10755 10751 10747 10743 10739 10735 10732 10728 10725 10722 10720 10717 10713 10710 10707 10704 10703 10702 10702 10702 10703 10705 10706 10708 10709 10710 10711 10711 10710 10710 10710 10711 10711 10711 10711 10711 10711 10712 10712 10713 10713 10713 10714 10714 10714 10713 10713 10714 10714 10714 10714 10714 10715 10715 10715 10715 10715 10715 10715 10715 10714 10714 10715 10715 10715 10715 10714 10714 10713 10713
10817 10814 10811 10808 10806 10803 10800 10797 10793 10790 10787 10783 10780 10776 10772 10768 10764 10760 10756 10752 10748 10744 10740 10736 10732 10729 10726 10723 10720 10717 10714 10711 10708 10706 10705 10703 10703 10704 10705 10706 10706 10707 10709 10711 10711 10711 10711 10711 10711 10712 10713 10713 10713 10712 10712 10713 10714 10714 10714 10714 10714 10715 10715 10715 10715 10715 10715 10715 10715 10716 10715 10715 10715 10715 10715 10715 10715 10715 10715 10715 10715 10716 10716 10715 10715 10714 10714 10714
10816 10814 10811 10808 10806 10803 10800 10797 10794 10791 10788 10784 10781 10777 10773 10769 10766 10762 10758 10754 10749 10745 10741 10737 10733 10729 10725 10723 10721 10718 10715 10712 10709 10708 10706 10704 10705 10706 10707 10707 10708 10708 10709 10711 10712 10712 10712 10712 10713 10713 10713 10713 10714 10713 10714 10715 10715 10715 10715 10715 10715 10715 10715 10715 10715 10716 10716 10715 10716 10716 10716 10715 10715 10715 10716 10716 10716 10716 10717 10716 10716 10717 10716 10716 10716 10716 10715 10715
10816 10814 10811 10808 10806 10803 10801 10798 10795 10791 10788 10785 10781 10778 10774 10770 10767 10763 10759 10755 10751 10746 10742 10739 10735 10730 10727 10724 10722 10719 10716 10713 10711 10709 10707 10706 10707 10708 10708 10709 10710 10710 10710 10711 10712 10712 10712 10714 10714 10714 10714 10714 10714 10714 10714 10715 10716 10716 10716 10716 10715 10715 10715 10715 10715 10716 10716 10716 10716 10716 10716 10715 10715 10716 10717 10717 10717 10718 10718 10718 10718 10718 10717 10717 10717 10716 10716 10716
10815 10813 10811 10808 10805 10803 10801 10798 10795 10792 10789 10785 10782 10779 10775 10771 10768 10764 10760 10756 10752 10748 10744 10741 10737 10733 10729 10726 10722 10720 10718 10715 10712 10710 10709 10708 10709 10709 10709 10710 10711 10711 10711 10711 10711 10711 10712 10714 10714 10715 10716 10715 10715 10715 10715 10716 10716 10717 10717 10717 10716 10716 10716 10715 10715 10715 10716 10717 10717 10716 10716 10716 10717 10717 10718 10718 10718 10719 10719 10719 10718 10718 10718 10718 10717 10717 10716 10716
10814 10813 10811 10808 10805 10803 10801 10798 10795 10792 10789 10786 10782 10779 10776 10772 10768 10765 10761 10757 10753 10749 10745 10742 10738 10734 10730 10726 10723 10721 10719 10717 10714 10712 10711 10710 10710 10710 10710 10711 10712 10713 10712 10711 10711 10711 10713 10714 10714 10715 10716 10716 10716 10715 10716 10717 10717 10717 10718 10718 10717 10717 10716 10716 10716 10716 10717 10717 10717 10716 10716 10717 10718 10718 10718 10718 10719 10719 10719 10719 10719 10719 10718 10718 10718 10717 10717 10717
10813 10812 10810 10808 10805 10802 10801 10798 10796 10792 10789 10786 10783 10780 10776 10773 10769 10765 10762 10758 10755 10751 10747 10743 10739 10735 10731 10727 10724 10722 10720 10718 10715 10713 10712 10712 10711 10711 10711 10712 10713 10713 10713 10713 10713 10713 10715 10716 10715 10715 10716 10716 10717 10717 10717 10717 10718 10718 10719 10719 10718 10717 10717 10717 10717 10717 10717 10717 10717 10717 10717 10718 10719 10719 10719 10719 10719 10719 10719 10719 10719 10719 10719 10718 10718 10718 10718 10718
10812 10811 10809 10807 10805 10802 10800 10798 10796 10793 10790 10787 10783 10780 10777 10774 10770 10766 10762 10759 10756 10752 10748 10743 10739 10735 10731 10728 10725 10724 10722 10720 10717 10715 10714 10713 10713 10712 10712 10712 10713 10714 10715 10714 10715 10716 10717 10717 10717 10717 10717 10718 10718 10718 10718 10718 10718 10718 10719 10718 10718 10718 10718 10717 10718 10718 10718 10718 10718 10718 10719 10719 10720 10720 10721 10720 10720 10720 10719 10720 10719 10719 10719 10719 10719 10719 10719 10719
10811 10810 10808 10807 10804 10802 10800 10798 10795 10793 10790 10787 10784 10781 10778 10774 10771 10767 10763 10760 10757 10753 10748 10744 10741 10737 10734 10730 10727 10725 10723 10721 10719 10717 10716 10715 10714 10713 10713 10714 10714 10715 10715 10715 10716 10718 10718 10718 10718 10718 10719 10719 10719 10719 10719 10719 10719 10719 10719 10718 10718 10719 10719 10719 10719 10719 10720 10720 10719 10720 10721 10721 10721 10722 10722 10722 10721 10720 10720 10720 10720 10720 10720 10719 10719 10719 10719 10719
10810 10809 10807 10806 10804 10802 10800 10798 10795 10792 10790 10787 10784 10781 10778 10775 10771 10768 10764 10760 10757 10753 10750 10746 10742 10739 10736 10733 10729 10726 10724 10722 10721 10719 10718 10717 10716 10715 10715 10715 10716 10716 10716 10716 10717 10718 10719 10719 10719 10719 10720 10720 10720 10720 10720 10720 10720 10720 10720 10719 10719 10720 10720 10720 10720 10721 10721 10721 10721 10722 10722 10723 10723 10723 10723 10723 10722 10721 10721 10721 10720 10720 10720 10720 10720 10720 10720 10720
10809 10808 10806 10805 10803 10801 10799 10798 10795 10792 10789 10787 10784 10781 10778 10776 10772 10768 10765 10761 10757 10754 10751 10747 10744 10741 10738 10735 10731 10728 10726 10724 10722 10721 10719 10718 10717 10717 10716 10716 10717 10717 10717 10718 10719 10719 10719 10719 10719 10719 10720 10720 10721 10721 10721 10721 10721 10721 10721 10721 10721 10721 10722 10722 10722 10722 10723 10723 10723 10723 10723 10724 10724 10724 10724 10723 10723 10722 10722 10722 10721 10721 10721 10720 10720 10721 10721 10721
10807 10806 10805 10804 10802 10800 10799 10797 10795 10792 10789 10787 10784 10781 10779 10776 10773 10769 10765 10762 10758 10755 10752 10748 10745 10743 10739 10735 10732 10729 10726 10724 10723 10722 10720 10719 10718 10718 10717 10717 10717 10718 10718 10719 10720 10720 10720 10720 10720 10719 10720 10721 10721 10721 10722 10722 10723 10722 10722 10722 10723 10723 10723 10723 10723 10723 10723 10724 10724 10724 10724 10724 10724 10725 10725 10724 10724 10723 10723 10723 10722 10722 10722 10721 10721 10721 10721 10721
10806 10805 10804 10802 10801 10799 10798 10797 10795 10792 10789 10787 10784 10781 10779 10776 10773 10770 10766 10762 10759 10756 10752 10749 10747 10743 10740 10736 10733 10731 10728 10726 10724 10723 10721 10720 10719 10719 10718 10718 10718 10718 10719 10719 10720 10720 10720 10720 10720 10720 10721 10722 10722 10722 10723 10723 10724 10724 10723 10723 10723 10724 10724 10725 10725 10724 10724 10724 10724 10725 10725 10725 10725 10725 10725 10724 10724 10724 10724 10724 10723 10723 10722 10722 10722 10722 10722 10722
10804 10803 10802 10801 10799 10798 10797 10796 10795 10792 10789 10786 10784 10781 10779 10776 10774 10771 10767 10763 10760 10756 10753 10751 10748 10745 10741 10738 10735 10732 10730 10727 10725 10724 10722 10720 10719 10719 10719 10718 10718 10718 10719 10720 10720 10720 10720 10720 10721 10722 10722 10723 10723 10724 10724 10724 10724 10725 10724 10723 10723 10723 10723 10724 10724 10725 10724 10723 10724 10725 10725 10724 10724 10724 10724 10724 10724 10724 10724 10724 10724 10724 10723 10723 10723 10723 10723 10723
10803 10801 10800 10799 10798 10797 10796 10795 10794 10792 10789 10786 10783 10781 10778 10776 10774 10771 10768 10765 10761 10757 10754 10751 10749 10746 10742 10739 10736 10734 10731 10729 10727 10725 10723 10721 10720 10719 10719 10719 10718 10719 10719 10720 10720 10721 10721 10721 10722 10723 10723 10724 10724 10725 10726 10725 10725 10725 10725 10724 10724 10723 10722 10722 10724 10725 10724 10723 10723 10724 10724 10724 10724 10724 10724 10724 10724 10724 10724 10724 10724 10723 10724 10724 10724 10723 10723 10723
10801 10800 10798 10797 10796 10795 10794 10793 10792 10791 10789 10785 10783 10780 10778 10776 10774 10771 10768 10765 10761 10758 10755 10752 10749 10746 10744 10741 10738 10735 10732 10730 10728 10726 10724 10722 10721 10719 10719 10719 10718 10719 10719 10720 10720 10721 10722 10722 10723 10724 10725 10724 10725 10726 10726 10726 10726 10726 10725 10726 10725 10725 10724 10724 10725 10725 10725 10724 10723 10724 10724 10724 10724 10724 10724 10724 10724 10724 10723 10723 10723 10723 10724 10724 10724 10724 10724 10724
10799 10798 10796 10795 10794 10793 10792 10791 10791 10790 10788 10785 10782 10780 10778 10776 10773 10771 10768 10765 10762 10759 10755 10752 10749 10746 10744 10742 10739 10737 10734 10731 10728 10726 10725 10723 10722 10720 10719 10719 10719 10719 10719 10720 10720 10721 10722 10722 10723 10724 10725 10725 10726 10727 10727 10727 10728 10727 10726 10726 10726 10727 10727 10726 10726 10726 10725 10724 10724 10723 10723 10723 10724 10724 10724 10724 10724 10724 10723 10723 10723 10724 10724 10725 10725 10725 10724 10724
10796 10796 10794 10793 10792 10791 10791 10790 10789 10789 10787 10785 10782 10779 10777 10776 10773 10771 10768 10766 10763 10759 10756 10753 10749 10747 10745 10742 10740 10738 10736 10733 10730 10727 10725 10724 10722 10721 10720 10719 10719 10719 10719 10720 10720 10721 10722 10723 10724 10724 10725 10725 10726 10726 10727 10728 10728 10728 10727 10727 10727 10727 10727 10727 10726 10726 10725 10724 10723 10723 10722 10723 10724 10724 10724 10725 10725 10725 10724 10724 10724 10724 10724 10725 10725 10725 10725 10724
10794 10793 10792 10791 10790 10789 10789 10788 10787 10787 10786 10784 10781 10778 10776 10775 10773 10770 10768 10765 10762 10760 10756 10753 10750 10748 10745 10742 10741 10739 10737 10734 10732 10729 10726 10724 10723 10722 10721 10720 10719 10719 10720 10720 10721 10722 10722 10723 10724 10724 10724 10724 10725 10726 10727 10727 10728 10728 10728 10728 10728 10727 10727 10727 10726 10726 10726 10724 10723 10723 10723 10724 10725 10724 10724 10725 10725 10725 10725 10724 10724 10724 10724 10725 10725 10725 10725 10724
10791 10791 10790 10789 10788 10787 10786 10786 10785 10785 10784 10783 10780 10777 10775 10774 10772 10770 10768 10765 10762 10759 10756 10753 10750 10748 10746 10743 10741 10739 10738 10735 10733 10730 10726 10724 10723 10723 10722 10721 10720 10719 10720 10720 10721 10722 10722 10723 10724 10724 10724 10724 10725 10726 10726 10727 10728 10728 10728 10728 10728 10728 10727 10727 10727 10727 10727 10725 10724 10724 10724 10725 10725 10725 10724 10725 10725 10726 10725 10725 10724 10724 10724 10725 10725 10725 10724 10724
10789 10788 10787 10786 10785 10785 10784 10783 10783 10782 10782 10781 10779 10777 10774 10772 10771 10769 10767 10765 10761 10758 10756 10753 10751 10748 10746 10744 10741 10739 10738 10736 10734 10731 10728 10726 10724 10723 10723 10722 10721 10719 10720 10720 10721 10722 10722 10722 10723 10724 10724 10725 10726 10726 10726 10727 10728 10727 10727 10727 10727 10727 10727 10727 10727 10727 10727 10726 10725 10724 10724 10725 10725 10725 10725 10725 10725 10725 10725 10725 10724 10724 10724 10724 10724 10724 10724 10723
10786 10786 10785 10784 10783 10783 10782 10781 10780 10780 10779 10779 10778 10776 10773 10771 10770 10768 10766 10764 10761 10758 10756 10753 10750 10748 10746 10744 10741 10739 10737 10736 10734 10732 10729 10727 10725 10724 10723 10722 10721 10720 10719 10719 10720 10721 10722 10722 10723 10724 10724 10725 10725 10726 10726 10726 10727 10726 10726 10726 10727 10727 10726 10726 10727 10728 10727 10726 10726 10725 10725 10726 10726 10726 10726 10725 10725 10725 10725 10725 10724 10723 10723 10723 10723 10724 10723 10723
10783 10783 10782 10781 10781 10780 10780 10779 10778 10777 10777 10777 10776 10774 10772 10770 10768 10767 10765 10763 10760 10758 10755 10753 10750 10747 10746 10744 10742 10739 10737 10735 10734 10733 10730 10728 10726 10725 10724 10723 10722 10721 10720 10719 10720 10721 10722 10723 10723 10724 10724 10724 10724 10725 10726 10726 10726 10727 10726 10727 10728 10727 10726 10727 10728 10728 10727 10726 10726 10726 10726 10726 10726 10726 10726 10725 10725 10725 10725 10724 10723 10723 10722 10722 10723 10723 10723 10723
10779 10779 10779 10779 10778 10778 10777 10777 10776 10775 10775 10774 10774 10773 10771 10769 10767 10765 10764 10762 10760 10757 10754 10752 10750 10747 10744 10742 10740 10739 10737 10735 10733 10732 10731 10729 10726 10725 10724 10723 10723 10722 10721 10720 10719 10720 10721 10722 10723 10723 10723 10724 10724 10724 10725 10726 10726 10727 10727 10727 10728 10728 10727 10727 10728 10728 10727 10726 10727 10726 10726 10726 10726 10726 10726 10725 10725 10724 10724 10724 10723 10722 10722 10722 10722 10722 10722 10722
10775 10776 10776 10775 10775 10775 10775 10774 10773 10773 10772 10772 10772 10771 10769 10767 10765 10764 10762 10761 10759 10757 10754 10751 10749 10746 10743 10741 10738 10737 10736 10734 10732 10732 10732 10730 10728 10725 10724 10723 10722 10722 10721 10720 10719 10719 10719 10721 10722 10722 10723 10723 10723 10723 10724 10725 10726 10726 10727 10727 10727 10727 10727 10726 10727 10727 10726 10726 10726 10726 10726 10726 10726 10726 10726 10726 10725 10725 10725 10724 10723 10722 10722 10722 10722 10722 10721 10721
10771 10772 10772 10772 10772 10772 10772 10771 10771 10770 10770 10770 10769 10768 10767 10766 10764 10762 10761 10760 10758 10756 10754 10751 10748 10746 10743 10741 10738 10735 10734 10733 10732 10731 10731 10731 10729 10726 10724 10722 10721 10721 10720 10720 10719 10718 10718 10719 10720 10720 10721 10722 10723 10723 10724 10725 10725 10725 10726 10727 10727 10727 10726 10726 10726 10726 10725 10724 10724 10725 10725 10725 10726 10726 10725 10725 10724 10725 10725 10724 10723 10722 10722 10722 10722 10721 10720 10720
10768 10768 10769 10769 10769 10769 10769 10769 10768 10768 10767 10767 10766 10766 10765 10764 10762 10761 10759 10758 10757 10755 10753 10751 10748 10746 10743 10741 10739 10736 10733 10732 10731 10730 10729 10729 10729 10727 10724 10721 10720 10720 10719 10719 10718 10718 10717 10717 10717 10718 10719 10721 10722 10723 10723 10723 10723 10723 10724 10725 10726 10726 10726 10725 10725 10724 10723 10723 10723 10724 10724 10725 10725 10725 10724 10724 10724 10725 10725 10724 10723 10723 10722 10721 10721 10720 10720 10719
10764 10764 10765 10765 10765 10765 10766 10766 10765 10765 10765 10764 10764 10763 10763 10762 10760 10759 10758 10757 10755 10754 10752 10750 10748 10746 10743 10741 10739 10737 10734 10732 10731 10729 10728 10727 10727 10726 10724 10721 10718 10718 10718 10718 10717 10717 10717 10716 10716 10716 10717 10719 10720 10721 10721 10721 10721 10721 10721 10722 10723 10723 10724 10724 10723 10723 10723 10723 10723 10723 10724 10725 10725 10725 10724 10724 10724 10724 10724 10724 10724 10723 10722 10720 10719 10719 10719 10718
10759 10760 10760 10761 10762 10762 10762 10762 10762 10762 10762 10762 10761 10761 10761 10760 10759 10757 10756 10755 10754 10752 10751 10749 10747 10745 10743 10740 10738 10736 10733 10731 10729 10728 10727 10726 10725 10724 10722 10721 10718 10717 10717 10717 10716 10716 10716 10715 10715 10715 10716 10717 10718 10719 10720 10720 10720 10719 10719 10720 10721 10722 10722 10722 10722 10722 10722 10722 10722 10723 10724 10723 10723 10724 10724 10724 10724 10723 10723 10723 10724 10723 10721 10719 10719 10718 10717 10717
10755 10755 10756 10757 10758 10758 10759 10759 10759 10759 10759 10759 10759 10758 10758 10757 10757 10755 10754 10753 10752 10751 10749 10747 10746 10744 10742 10740 10738 10735 10733 10730 10728 10726 10725 10725 10724 10723 10721 10720 10718 10716 10716 10715 10715 10715 10715 10714 10713 10713 10713 10714 10715 10717 10718 10718 10718 10718 10719 10719 10720 10720 10720 10721 10721 10721 10721 10721 10722 10722 10722 10721 10721 10722 10723 10723 10723 10722 10722 10723 10722 10721 10719 10719 10718 10717 10716 10715
10750 10751 10752 10753 10754 10754 10755 10755 10755 10756 10756 10756 10755 10755 10755 10755 10754 10753 10752 10751 10750 10749 10747 10746 10744 10743 10741 10740 10737 10735 10732 10730 10728 10725 10723 10722 10722 10722 10721 10719 10717 10715 10714 10713 10713 10713 10713 10712 10712 10712 10711 10711 10713 10714 10715 10716 10716 10717 10717 10717 10717 10718 10719 10719 10719 10719 10719 10720 10719 10720 10720 10720 10720 10721 10722 10722 10722 10721 10721 10721 10720 10719 10719 10718 10717 10716 10714 10713
10745 10746 10747 10749 10749 10750 10750 10751 10751 10752 10752 10752 10752 10752 10752 10751 10751 10751 10750 10749 10748 10747 10746 10744 10743 10742 10740 10739 10737 10734 10732 10730 10728 10725 10723 10720 10719 10719 10719 10717 10716 10714 10712 10711 10710 10710 10711 10710 10710 10710 10709 10709 10710 10711 10712 10713 10713 10714 10714 10715 10716 10717 10717 10718 10718 10718 10717 10717 10718 10718 10719 10719 10719 10720 10720 10721 10720 10719 10719 10719 10719 10718 10718 10717 10716 10714 10712 10711
10740 10741 10743 10744 10745 10745 10746 10747 10747 10748 10749 10749 10748 10749 10748 10748 10748 10748 10747 10746 10745 10744 10743 10742 10741 10740 10739 10737 10736 10734 10731 10729 10727 10725 10722 10719 10717 10716 10715 10715 10714 10713 10710 10709 10709 10708 10708 10708 10708 10708 10708 10707 10707 10707 10709 10710 10711 10711 10712 10713 10714 10715 10716 10717 10717 10716 10716 10716 10716 10717 10717 10717 10717 10718 10718 10718 10718 10717 10717 10717 10717 10717 10716 10715 10714 10712 10711 10710
10735 10737 10739 10739 10739 10740 10742 10743 10743 10744 10745 10745 10745 10745 10745 10744 10745 10745 10744 10743 10742 10742 10741 10740 10739 10738 10737 10735 10734 10733 10731 10728 10726 10724 10722 10719 10716 10714 10713 10712 10712 10711 10708 10708 10708 10706 10706 10706 10706 10706 10706 10706 10705 10705 10706 10707 10708 10708 10709 10711 10712 10712 10713 10714 10714 10714 10714 10715 10715 10716 10716 10715 10715 10715 10715 10716 10716 10715 10715 10715 10715 10716 10715 10713 10712 10711 10710 10709
10729 10732 10733 10733 10735 10736 10738 10738 10738 10739 10741 10741 10741 10741 10741 10741 10741 10741 10741 10741 10739 10738 10738 10737 10736 10736 10735 10734 10732 10731 10729 10727 10725 10723 10721 10718 10715 10713 10711 10710 10710 10710 10708 10707 10706 10705 10704 10704 10703 10704 10705 10704 10704 10703 10703 10704 10705 10705 10707 10708 10709 10709 10710 10710 10711 10711 10712 10713 10714 10714 10713 10712 10712 10713 10713 10713 10713 10713 10713 10713 10714 10714 10713 10710 10710 10710 10709 10706
10724 10727 10727 10728 10730 10732 10732 10733 10734 10735 10736 10737 10737 10737 10736 10737 10738 10737 10738 10738 10736 10735 10735 10734 10734 10733 10733 10732 10730 10729 10728 10726 10724 10722 10720 10717 10714 10712 10709 10707 10708 10708 10707 10705 10704 10704 10703 10702 10701 10702 10702 10702 10702 10701 10701 10701 10702 10703 10704 10705 10705 10706 10706 10707 10708 10710 10711 10711 10711 10710 10710 10708 10708 10710 10711 10711 10710 10710 10710 10711 10711 10711 10710 10708 10708 10707 10705 10703
10718 10720 10721 10722 10725 10727 10727 10727 10729 10730 10731 10732 10733 10732 10732 10733 10734 10734 10734 10734 10733 10732 10732 10731 10730 10730 10730 10729 10728 10727 10725 10724 10722 10721 10719 10716 10713 10711 10708 10705 10705 10705 10704 10703 10702 10702 10701 10700 10699 10699 10699 10699 10698 10699 10699 10699 10699 10700 10701 10701 10702 10703 10703 10704 10704 10706 10706 10707 10707 10707 10706 10704 10706 10707 10708 10708 10708 10707 10708 10708 10708 10709 10708 10706 10705 10704 10702 10700
10711 10712 10714 10717 10719 10721 10721 10722 10723 10725 10726 10727 10727 10728 10728 10728 10729 10730 10730 10730 10729 10729 10728 10728 10727 10727 10727 10726 10725 10724 10722 10721 10721 10719 10717 10715 10713 10711 10708 10704 10702 10702 10702 10700 10699 10699 10698 10697 10696 10697 10697 10696 10696 10696 10696 10697 10697 10697 10697 10698 10698 10699 10700 10700 10700 10701 10702 10703 10703 10702 10701 10701 10703 10704 10704 10705 10705 10704 10705 10705 10704 10705 10705 10703 10702 10701 10699 10698
10703 10705 10708 10711 10713 10714 10714 10716 10718 10719 10720 10722 10722 10723 10723 10723 10724 10726 10726 10725 10725 10725 10725 10724 10723 10723 10724 10723 10722 10721 10720 10718 10718 10717 10715 10713 10711 10709 10707 10703 10700 10699 10698 10698 10697 10695 10695 10693 10693 10694 10694 10693 10693 10694 10694 10695 10695 10695 10695 10695 10695 10696 10696 10696 10697 10697 10698 10699 10699 10698 10698 10698 10699 10700 10702 10703 10702 10701 10702 10702 10701 10702 10702 10700 10698 10697 10696 10695